Regional Weather Roundup
Issued by NWS Sioux Falls, SD

Home | Current Version | Previous Version | Graphics & Text | Print | Product List | Glossary On
Versions: 1 2 3 4 5 6 7 8 9 10 11 12 13 14 15 16 17 18 19 20 21 22 23 24 25 26 27 28 29 30 31 32 33 34 35 36 37 38 39 40 41 42 43 44 45 46 47 48 49 50
000
ASUS43 KFSD 211110
RWRFSD

WEATHER ROUNDUP FOR SE SOUTH DAKOTA/SW MINNESOTA/NW IOWA
NATIONAL WEATHER SERVICE SIOUX FALLS SD
500 AM CST TUE FEB 21 2017

NOTE: "FAIR" INDICATES FEW OR NO CLOUDS BELOW 12,000 FEET WITH NO
SIGNIFICANT WEATHER AND OR OBSTRUCTIONS TO VISIBILITY.


SDZ038>040-050-052>070-211200-
SOUTHEAST SOUTH DAKOTA

CITY           SKY/WX    TMP DP  RH WIND       PRES   REMARKS
BROOKINGS      CLEAR     35  34  96 S9        29.84S WCI  28
CHAMBERLAIN    CLEAR     45  32  61 SW9       29.78F
HURON          CLEAR     36  32  85 S10       29.78F
MADISON        FAIR      37  37 100 S13       29.85F
MITCHELL       CLEAR     38  31  76 S10       29.83S
SIOUX FALLS    CLEAR     35  34  96 SW3       29.89S
WINNER         FAIR      46  28  49 SW14      29.80S
YANKTON        CLEAR     36  34  93 S6        29.89S
$$

MNZ071-072-080-081-089-090-097-098-211200-
SOUTHWEST MINNESOTA

CITY           SKY/WX    TMP DP  RH WIND       PRES   REMARKS
FAIRMONT       PTCLDY    32  32 100 S6        29.90S WCI  26
JACKSON        CLEAR     32  32 100 S8        29.90R WCI  25
LUVERNE        FOG       30  28  93 CALM      29.90R VSB 1/2
MARSHALL       CLEAR     37  32  82 S12       29.86R
MONTEVIDEO     CLEAR     32  32 100 S5        29.86S WCI  27
PIPESTONE      CLEAR     36  32  87 S3        29.87R
REDWOOD FALLS  CLEAR     33  30  88 S3        29.87R
TRACY          CLEAR     39  35  83 SW10      29.86S
WINDOM         CLEAR     34  34 100 S5        29.89R WCI  30
WORTHINGTON    CLEAR     36  35  96 SW9       29.90R
$$

IAZ001>003-012>014-020>022-031-032-NEZ013-014-SDZ071-211200-
NORTHWEST IOWA

CITY           SKY/WX    TMP DP  RH WIND       PRES   REMARKS
CHEROKEE       FOG       29  29 100 CALM      29.92S VSB 3/4
DENISON        FOG       28  30 100 CALM      29.93S VSB 1/4
ESTHERVILLE    CLEAR     32  32 100 SW7       29.90R WCI  26
LE MARS        CLEAR     32  32 100 S5        29.93F WCI  27
SHELDON        CLEAR     36  36 100 S6        29.90R
SIOUX CITY     CLEAR     31  29  92 E5        29.93S FOG     WCI  26
SPENCER        CLEAR     34  33  96 SW7       29.92R WCI  28
STORM LAKE     CLEAR     37  36  93 SW9       29.92S FOG
$$

ABBREVIATIONS USED IN REMARKS
   TC - TEMPERATURE IN CELSIUS
  WCI - WIND CHILL INDEX
   HX - HEAT INDEX
  VSB - VISIBILITY





USA.gov is the U.S. government's official web portal to all federal, state and local government web resources and services.